www.pogodaiklimat.ru

Погода и климат >> Архив погоды >> Австралия >> Западная Австралия >> Холс Крик


ПОГОДА в Холс Крик

  • Прогноз погоды в Холс Крик
  • Монитор погоды в Холс Крик

АРХИВ ПОГОДЫ в Холс Крик

Время (UTC), дата Ветер
(напр.,м/с)
 
Видим.   Явления Облачность Т
(С)
Тd
(С)
f
(%)
Тe
(С)
Тes
(С)
Комфортность P
(гПа)
Po
(гПа)
Тmin
(С)
Tmax
(С)
R
(мм)
R24
(мм)
S
(см)
07 15.02 С 1 н/о 10/0
[]
+38.6 +11.6 20 +38 +43 очень
жарко
1005.6 960.6
09 15.02 С 3 н/о н/о +37.1 +13.8 25 +38 +38 душно 1005.8 960.8
10 15.02 С 3 н/о {туман} н/о +36.3 +12.5 24 +36 +36 очень
жарко
1006.2 961.2
12 15.02 штиль 0 н/о н/о +33.1 +14.2 32 +34 +34 очень
жарко
1008.5 963.4
13 15.02 В 6 н/о {туман} 10/0
[]
+32.8 +20.0 47 +39 +39 очень
душно
1010.0 964.8 +41.3
15 15.02 В 4 н/о н/о +31.9 +20.8 52 +39 +39 очень
душно
1010.4 965.2
16 15.02 В 8 н/о 10/10 1000 м
[]
+30.0 +19.4 53 +36 +36 очень
душно
1010.9 965.7
18 15.02 С 4 н/о н/о +22.9 +20.1 84 +30 +30 очень
душно
1009.6 964.5
19 15.02 Ю 2 н/о {туман} 8/0
[]
+23.5 +21.2 87 +30 +30 очень
душно
1009.2 964.1
21 15.02 В 1 н/о н/о +24.4 +22.7 90 +32 +32 очень
душно
1009.8 964.6
22 15.02 СВ 2 н/о 10/0
[]
+25.5 +23.0 86 +34 +34 очень
душно
1010.4 965.2
00 16.02 СВ 4 н/о н/о +29.4 +21.9 64 +38 +38 очень
душно
1011.3 966.1
01 16.02 С 3 н/о {туман} н/о +31.2 +21.1 55 +39 +39 очень
душно
1011.2 966.0 +21.6
03 16.02 СВ 2 н/о н/о +34.5 +17.7 37 +38 +38 очень
душно
1009.6 964.5
04 16.02 В 4 н/о 1/0
[]
+36.5 +18.1 34 +40 +55 опасность
солнечного
удара
1008.7 963.6
06 16.02 С 2 н/о н/о +37.6 +16.5 29 +40 +40 очень
душно
1006.5 961.5
07 16.02 ЮВ 2 н/о н/о +38.2 +14.7 25 +39 +39 очень
душно
1005.7 960.7
09 16.02 С 4 н/о н/о +35.9 +17.1 33 +39 +39 очень
душно
1005.3 960.3
10 16.02 СЗ 4 н/о н/о +33.4 +18.0 40 +38 +38 очень
душно
1006.0 961.0
12 16.02 С 2 н/о н/о +31.2 +19.2 49 +37 +37 очень
душно
1008.2 963.1
13 16.02 С 2 н/о 8/0
[]
+31.1 +18.1 46 +36 +36 очень
душно
1008.9 963.8 +38.8
15 16.02 ЮЗ 4 н/о н/о +29.7 +16.8 46 +33 +33 душно 1008.4 963.3
16 16.02 СЗ 3 н/о н/о +28.6 +18.4 54 +33 +33 очень
душно
1008.1 963.0
18 16.02 С 2 н/о н/о +27.4 +19.5 62 +33 +33 очень
душно
1008.3 963.2
19 16.02 З 1 н/о н/о +26.2 +19.6 67 +32 +32 очень
душно
1008.4 963.3
21 16.02 З 3 н/о н/о +25.8 +19.0 66 +31 +31 очень
душно
1008.5 963.4
22 16.02 З 3 н/о н/о +26.4 +19.0 64 +32 +32 очень
душно
1008.8 963.7
00 17.02 З 4 н/о н/о +31.0 +18.0 46 +35 +35 очень
душно
1009.3 964.2
01 17.02 З 3 н/о н/о +32.6 +16.8 39 +36 +36 очень
душно
1009.4 964.3 +25.6
03 17.02 З 4 н/о н/о +35.7 +15.9 31 +38 +38 очень
душно
1008.2 963.1
04 17.02 СЗ 2 н/о н/о +36.7 +15.8 29 +39 +39 очень
душно
1007.1 962.1
06 17.02 В 2 н/о н/о +37.8 +13.8 24 +38 +38 очень
жарко
1005.0 960.1
07 17.02 ЮВ 2 н/о 5/0
[]
+37.7 +11.6 21 +37 +44 очень
жарко
1004.3 959.4
09 17.02 СЗ 6 н/о н/о +35.2 +14.5 29 +36 +36 очень
жарко
1004.4 959.5
10 17.02 СЗ 5 н/о 10/0
[]
+33.2 +14.8 33 +35 +35 душно 1005.0 960.1
12 17.02 С 5 н/о н/о +30.6 +17.3 45 +35 +35 очень
душно
1006.9 961.9
13 17.02 С 4 н/о 10/0
[]
+30.6 +16.6 43 +34 +34 очень
душно
1007.1 962.1 +38.7
15 17.02 С 4 н/о н/о +28.2 +17.4 52 +32 +32 душно 1007.6 962.5
16 17.02 СЗ 2 н/о н/о +27.0 +17.5 56 +31 +31 душно 1007.1 962.1
18 17.02 СЗ 1 н/о н/о +26.0 +17.9 61 +30 +30 душно 1006.7 961.7
19 17.02 З 3 н/о н/о +26.0 +18.2 62 +31 +31 очень
душно
1006.9 961.9
21 17.02 З 3 н/о н/о +25.3 +18.2 65 +30 +30 душно 1007.9 962.8
22 17.02 З 3 н/о н/о +25.7 +18.6 65 +31 +31 очень
душно
1008.5 963.4
00 18.02 З 6 н/о н/о +30.4 +16.8 44 +34 +34 очень
душно
1009.1 964.0
01 18.02 З 6 н/о н/о +32.7 +17.3 40 +36 +36 очень
душно
1008.8 963.7 +25.1
03 18.02 З 5 н/о н/о +35.5 +16.8 33 +38 +38 очень
душно
1008.1 963.0
04 18.02 ЮЗ 4 н/о н/о +36.8 +15.3 28 +38 +38 очень
душно
1007.5 962.4
06 18.02 Ю 3 н/о н/о +38.0 +13.9 24 +38 +38 очень
жарко
1005.7 960.7
07 18.02 ЮЗ 3 н/о 1/0
[]
+39.2 +14.9 24 +40 +47 очень
душно
1005.0 960.1
09 18.02 ЮЗ 7 н/о н/о +37.5 +14.1 25 +38 +38 очень
жарко
1004.9 960.0
10 18.02 ЮЗ 5 н/о 6/0
[]
+35.4 +14.6 29 +37 +37 очень
душно
1005.6 960.6
12 18.02 СЗ 3 н/о н/о +32.3 +15.3 36 +35 +35 очень
душно
1007.0 962.0
13 18.02 СЗ 6 н/о 10/0
[]
+29.6 +17.4 48 +34 +34 очень
душно
1008.0 962.9 +39.7
15 18.02 СЗ 5 н/о н/о +29.3 +17.5 49 +33 +33 душно 1008.1 963.0
16 18.02 СЗ 4 н/о 10/0
[]
+28.6 +17.5 51 +33 +33 очень
душно
1007.8 962.7
18 18.02 З 3 н/о н/о +27.3 +18.0 57 +32 +32 очень
душно
1006.9 961.9
19 18.02 З 2 н/о н/о +27.2 +17.7 56 +31 +31 душно 1007.1 962.1
21 18.02 З 3 н/о н/о +26.1 +19.0 65 +31 +31 очень
душно
1007.8 962.7
22 18.02 З 3 н/о 1/0
[]
+26.9 +18.7 61 +32 +33 очень
душно
1008.7 963.6
00 19.02 З 5 н/о н/о +31.0 +17.3 44 +35 +35 очень
душно
1010.1 964.9
01 19.02 З 5 н/о н/о +32.8 +16.6 38 +36 +36 очень
душно
1010.3 965.1 +26.2
03 19.02 З 6 н/о н/о +35.7 +17.9 35 +39 +39 очень
душно
1009.4 964.3
04 19.02 ЮЗ 6 н/о н/о +36.8 +18.8 35 +41 +41 опасность
перегрева
1008.6 963.5
06 19.02 ЮЗ 5 н/о н/о +36.9 +18.4 34 +41 +41 опасность
перегрева
1006.7 961.7
07 19.02 ЮЗ 6 н/о 1/0 2000 м
[]
+38.5 +17.3 29 +41 +44 опасность
перегрева
1005.8 960.8
09 19.02 В 13 н/о н/о +30.9 +14.9 38 +33 +33 душно 1007.0 962.0
10 19.02 С 7 н/о ливневой дождь {туман} 6/6 300 м
[]
+25.1 +20.6 76 +31 +31 очень
душно
1008.0 962.9
12 19.02 З 3 н/о н/о +23.3 +19.0 77 +30 +30 очень
душно
1010.7 965.5
13 19.02 З 5 н/о ливневой дождь {туман} 10/0 2000 м
[]
+23.7 +19.2 76 +29 +29 душно 1010.9 965.7 +39.3
15 19.02 З 4 н/о н/о +22.8 +19.8 83 +29 +29 очень
душно
1008.9 963.8
16 19.02 З 6 н/о в посл. час дождь со снегом {туман} 9/0
[]
+25.2 +19.3 70 +30 +30 душно 1007.9 962.8
18 19.02 ЮЗ 8 н/о н/о +25.0 +18.7 68 +30 +30 душно 1008.0 962.9
19 19.02 З 4 н/о {туман} 10/0
[]
+24.9 +18.4 67 +29 +29 душно 1008.2 963.1
21 19.02 С 3 н/о н/о +24.0 +19.5 76 +29 +29 душно 1008.9 963.8
22 19.02 штиль 0 н/о н/о +24.1 +19.8 77 +29 +29 душно 1010.2 965.0
00 20.02 ЮЗ 6 н/о н/о +28.5 +18.3 54 +33 +33 очень
душно
1011.2 966.0
01 20.02 ЮЗ 6 н/о н/о +30.0 +18.1 49 +35 +35 очень
душно
1011.5 966.3 +21.1
03 20.02 З 5 н/о н/о +33.4 +16.3 36 +36 +36 очень
душно
1010.9 965.7
04 20.02 З 4 н/о н/о +34.3 +16.2 34 +37 +37 очень
душно
1009.9 964.7
06 20.02 Ю 5 н/о н/о +36.3 +13.7 26 +37 +37 очень
жарко
1008.0 962.9
07 20.02 ЮЗ 5 н/о н/о +37.1 +14.4 26 +38 +38 душно 1007.3 962.3
09 20.02 ЮЗ 2 н/о н/о +36.9 +15.4 28 +38 +38 очень
душно
1006.8 961.8
10 20.02 СЗ 3 н/о н/о +33.7 +18.6 41 +38 +38 очень
душно
1007.2 962.2
12 20.02 З 3 н/о н/о +31.3 +17.9 45 +36 +36 очень
душно
1008.5 963.4
13 20.02 СЗ 2 н/о н/о +30.0 +20.0 55 +36 +36 очень
душно
1008.9 963.8 +37.6
15 20.02 СЗ 2 н/о н/о +28.5 +18.9 56 +34 +34 очень
душно
1009.1 964.0
16 20.02 З 3 н/о н/о +29.3 +17.2 48 +33 +33 душно 1009.0 963.9
18 20.02 З 4 н/о н/о +28.4 +17.9 53 +33 +33 очень
душно
1008.4 963.3
19 20.02 З 5 н/о н/о +27.1 +18.4 59 +32 +32 очень
душно
1008.3 963.2
21 20.02 З 4 н/о н/о +26.2 +19.3 66 +32 +32 очень
душно
1009.3 964.2
22 20.02 З 4 н/о н/о +26.3 +19.9 68 +32 +32 очень
душно
1009.9 964.7
00 21.02 З 6 н/о н/о +28.9 +21.1 63 +36 +36 очень
душно
1011.1 965.9
01 21.02 З 8 н/о н/о +30.8 +20.4 54 +38 +38 очень
душно
1011.2 966.0 +25.7
03 21.02 З 6 н/о н/о +34.2 +19.1 41 +39 +39 очень
душно
1010.2 965.0
04 21.02 ЮЗ 5 н/о н/о +35.7 +19.6 39 +41 +41 опасность
перегрева
1008.9 963.8
06 21.02 ЮЗ 5 н/о н/о +37.9 +17.3 30 +41 +41 опасность
перегрева
1006.7 961.7
07 21.02 З 5 н/о 1/0
[]
+38.3 +16.0 27 +40 +44 очень
душно
1005.9 960.9
09 21.02 З 4 н/о н/о +37.3 +15.2 27 +39 +39 очень
душно
1005.3 960.3
10 21.02 З 3 н/о 9/0
[]
+36.0 +15.7 30 +38 +38 очень
душно
1006.4 961.4
12 21.02 СВ 8 н/о н/о +24.8 +21.9 84 +32 +32 очень
душно
1012.2 966.9
13 21.02 С 7 н/о {туман} н/о +24.9 +19.7 73 +30 +30 душно 1010.9 965.7 +38.9
15 21.02 С 4 н/о н/о +24.8 +19.2 71 +30 +30 душно 1009.8 964.6
16 21.02 СЗ 3 н/о 10/0
[]
+25.5 +19.2 68 +31 +31 очень
душно
1008.6 963.5
18 21.02 Ю 1 н/о н/о +25.3 +20.3 74 +31 +31 очень
душно
1008.3 963.2
19 21.02 ЮВ 1 н/о 10/0
[]
+25.8 +19.9 70 +32 +32 очень
душно
1008.7 963.6
21 21.02 В 1 н/о н/о +26.0 +19.2 66 +31 +31 очень
душно
1009.8 964.6
22 21.02 ЮВ 2 н/о ливневой дождь 10/0
[]
+26.1 +19.5 67 +32 +32 очень
душно
1010.9 965.7
00 22.02 Ю 2 н/о н/о +28.2 +20.0 61 +34 +34 очень
душно
1010.8 965.6
01 22.02 СЗ 2 н/о в посл. час дождь со снегом 1/0
[]
+31.0 +20.0 52 +37 +52 опасность
солнечного
удара
1010.4 965.2 +23.9
03 22.02 З 2 н/о н/о +36.0 +15.7 30 +38 +38 очень
душно
1009.2 964.1
04 22.02 СВ 5 н/о 1/0
[]
+36.7 +15.8 29 +39 +50 очень
душно
1008.4 963.3
06 22.02 В 2 н/о н/о +37.8 +16.1 28 +40 +40 очень
душно
1006.6 961.6
07 22.02 В 2 н/о н/о +37.6 +14.2 25 +38 +38 очень
жарко
1005.6 960.6

 

Местоположение метеостанции Холс Крик (Западная Австралия, Австралия): широта -18.23 долгота 127.66 высота над уровнем моря 424 м.

В архиве по умолчанию представлена погода в Холс Крик за последнюю неделю. Архивные данные за месяц целиком и за предыдущие месяцы, начиная с января 2011 года, Вы можете получить, выбрав интересующий диапазон дат из раскрывающегося списка и нажав кнопку "Ввод!".


*Определитесь, кто Вы:
робот инопланетянин человек

Внимание! Время в таблицах - всемирное. Для получения местного времени необходимо прибавить поправку, которая равна 8 ч.

Смотрите также архив погоды в соседних городах и на ближайших метеорологических станциях:

Погода в Аэропорту Аргайл (Западная Австралия, Австралия) (197 км)
Погода в Фицрой-Кроссинге (Западная Австралия, Австралия) (222 км)
Погода в Кунунарре (Западная Австралия, Австралия) (294 км)
Погода в Уиндеме (Западная Австралия, Австралия) (308 км)
Погода в Ладжаману (Северная территория, Австралия) (314 км)
Погода в Раббит Флат (Северная территория, Австралия) (329 км)
Погода в Виктория-Ривер (Северная территория, Австралия) (411 км)
Погода на Базе ВВС Curtin (Западная Австралия, Австралия) (413 км)
Погода в Дерби (Северная территория, Австралия) (435 км)
Погода в Калумбуру (Западная Австралия, Австралия) (450 км)

Пояснения к столбцам:

Ветер - указаны скорость ветра в м/с - средняя за 10 мин, порывы в срок и между сроками (в фигурных скобках) и направление, откуда дует ветер: С - северный, СВ - северо-восточный, В - восточный, ЮВ - юго-восточный, Ю - южный, ЮЗ - юго-западный, З - западный, СЗ - северо-западный.
Видимость - горизонтальная дальность видимости в метрах или километрах. При видимости от 1 до 10 км при отсутствии осадков обычно наблюдается дымка, при ухудшении видимости до 1 км и менее - туман. В сухую погоду видимость может ухудшаться дымом, пылью или мглою.
Явления - указаны атмосферные явления, наблюдавшиеся в срок или в последний час перед сроком; фигурными скобками обозначены явления, наблюдавшиеся между сроками (за 1-3 часа до срока); квадратными скобками обозначены град или гололедные отложения с указанием их диаметра в мм.
Облачность - указаны через наклонную черту общая и нижняя облачность в баллах и высота нижней границы облаков в метрах; квадратными скобками обозначены формы облаков: Ci - перистые, Cs - перисто-слоистые, Cc - перисто-кучевые, Ac - высококучевые, As - высокослоистые, Sc - слоисто-кучевые, Ns - слоисто-дождевые, Cu - кучевые, Cb - кучево-дождевые. Подробнее классификацию облаков см. в Атласе облаков (PDF).
T - Температура воздуха - температура, измеренная на высоте 2 м над землей.
Td - Температура точки росы - температура, при понижении до которой содержащийся в воздухе водяной пар достигнет насыщения.
f - Относительная влажность воздуха - влажноcть воздуха, измеренная на высоте 2 м над землей.
Te - Эффективная температура - температура, которую ощущает одетый по сезону человек в тени. Характеристика душности погоды. При расчете учитывается влияние влажности воздуха и скорости ветра на теплоощущения человека.
Tes - Эффективная температура на солнце - температура, которую ощущает человек, с поправкой на солнечный нагрев. Характеристика знойности погоды. Зависит от высоты солнца над горизонтом, облачности и скорости ветра. Ночью, в пасмурную погоду, а также при ветре 12 м/с и более поправка равна нулю.
P - Атмосферное давление - приведенное к уровню моря атмосферное давление.
Po - Атмосферное давление - измеренное на уровне метеостанции атмосферное давление.
Tmin - Минимальная температура - минимум температуры воздуха на высоте 2 м над землей.
Tmax - Максимальная температура - максимум температуры воздуха на высоте 2 м над землей.
R - Количество осадков - Количество выпавших осадков за период времени, мм. При наведении курсора мыши на число - период времени, за который выпало указанное количество осадков.
R24 - Количество осадков - Количество выпавших осадков за 24 часа, мм.
S - Снежный покров - Высота снежного покрова, см. При наведении курсора мыши на число - состояние снежного покрова и степень покрытия местности в баллах.